Torna al catalogo

COSMOS 2440

AttivoNavigazioneGEO
NORAD 33108·PAYLOAD·🇷🇺 Russia

Lanciato Jun 27, 2008 da Baikonur Cosmodrome

Loading…

TLE

AggiornatoSource: Space-Track

Epoca: Sep 14, 2026, 10:44 UTC

1 33108U 08033A   26257.44781127 -.00000121  00000-0  00000-0 0  9990
2 33108  10.7498  40.3460 0005438 191.1869   0.0704  1.00261018 66684

Traccia COSMOS 2440 in tempo reale con AllMySat

Download on the App Store